HIMAWARI-8

Last updated on Mon Sep 07 2026 00:02:40 GMT+0000 (Coordinated Universal Time)

1 40267U 14060A 26249.54840147 -.00000291 00000+0 00000+0 0 9997 2 40267 0.0026 63.1955 0001204 139.2514 121.2727 1.00273745 43570
UTC large
Height (km)
Speed (km/s)
/
Latitude / Longitude
Inclination (degrees)
Orbital Period (minutes)
Azimuth
Elevation
Range (km)
Doppler Factor

Next 0 passes for location: London (51.5072 / 0.1276)

No passes found over London.
HIMAWARI-8